Temp
65 65 66 66 66 66 68 70 69 71 72 73 73 72 72 71 71 70 71 71 69 68 67 66 67 68 73 72 74 75 75 75 75 74 74 74 74 74 74 74 74 74 74 74 74 73 72 72 72 73 73 73 73 68 68 68 69 70 70 71 70 67
64 65 65 65 66 66 66 68 66 67 68 69 71 71 68 69 69 66 69 67 67 68 67 66 67 70 71 72 72 74 75 75 75 75 74 74 74 74 74 74 74 73 73 73 74 69 67 69 71 72 73 73 69 67 67 66 67 69 69 70 67 68
64 64 64 65 65 66 66 66 66 67 68 69 69 69 67 68 66 66 66 66 68 66 67 67 67 71 73 74 72 73 74 75 75 75 75 74 73 74 74 74 73 73 73 72 70 67 67 67 67 70 70 68 66 66 65 66 66 66 67 70 67 70
64 64 64 65 65 66 65 66 66 66 66 66 66 67 67 66 66 66 66 66 66 67 68 65 69 71 71 68 67 69 71 71 72 72 74 71 70 70 72 71 71 72 70 68 68 68 68 67 68 67 67 67 66 65 66 66 65 66 66 70 68 71
64 64 64 64 65 66 66 65 66 66 67 66 66 66 66 66 65 66 66 66 66 68 66 65 65 66 66 66 66 65 65 66 67 67 71 69 68 68 68 67 68 68 67 68 68 68 67 67 68 67 67 67 67 66 66 66 66 66 66 67 69 72
63 63 63 63 64 67 66 65 65 67 67 66 66 66 66 65 65 66 65 66 68 66 65 65 64 65 65 64 65 65 65 65 65 67 68 68 68 68 67 67 67 67 68 67 67 67 67 68 68 68 67 67 66 66 66 66 66 66 66 67 70 72
63 63 63 64 64 65 64 65 65 67 66 66 67 65 65 66 66 66 66 67 67 65 64 64 64 64 64 64 65 65 65 65 65 65 67 67 67 67 66 66 65 66 66 66 67 68 67 68 67 68 67 67 67 66 66 66 66 66 66 67 69 72
64 63 62 63 64 64 64 65 67 68 66 70 66 65 65 66 66 65 67 66 69 65 64 65 65 65 65 65 66 66 65 65 65 66 66 67 66 65 65 65 65 65 66 66 67 68 68 68 67 67 66 66 66 65 65 65 66 67 67 67 67 70
64 63 62 63 65 64 64 65 66 66 66 71 65 65 65 66 64 65 66 66 68 65 65 65 65 65 65 65 65 66 66 65 64 65 66 65 65 65 65 65 65 66 65 65 65 66 68 67 66 66 66 66 65 65 65 65 66 67 67 67 68 70
65 65 64 64 64 64 65 65 65 65 66 68 64 65 65 64 64 64 65 66 66 66 64 64 64 64 64 64 64 65 65 65 65 65 65 65 65 65 65 65 65 66 66 65 66 66 69 66 66 66 65 65 65 65 65 65 65 66 66 67 67 68
64 67 64 64 65 63 63 63 63 62 63 63 64 65 65 64 64 64 65 64 65 67 65 64 64 64 64 64 64 64 64 65 65 65 64 64 65 66 65 65 65 66 66 66 66 67 67 66 65 65 65 65 64 65 65 66 66 67 67 67 67 67
63 64 63 62 63 63 64 64 64 63 63 64 65 63 64 64 65 64 64 64 65 65 67 64 64 65 64 64 64 64 64 65 64 64 65 64 65 65 66 67 67 67 66 66 66 66 66 65 64 65 65 65 66 66 66 67 67 67 67 67 66 66
62 62 62 63 62 62 63 63 64 63 64 64 62 63 63 63 63 63 64 63 64 66 65 64 63 64 65 63 63 64 64 64 64 64 64 65 66 65 65 65 66 66 67 65 66 66 66 65 64 64 65 65 66 66 67 67 68 68 67 67 66 66
64 62 65 62 64 62 63 64 65 62 64 63 62 62 64 62 65 63 63 63 63 66 64 63 63 63 63 63 63 63 63 64 64 64 64 64 64 64 64 64 65 64 67 65 65 65 65 64 64 64 64 65 66 66 67 67 67 67 67 67 67 67
64 60 61 62 62 63 63 63 62 63 64 62 64 62 61 62 62 62 63 62 64 66 63 63 63 62 62 62 62 63 63 63 63 64 64 64 63 63 63 63 64 64 63 64 65 66 64 64 64 64 64 66 66 67 67 68 68 67 67 67 67 66
59 59 60 62 61 61 62 62 63 67 64 63 62 62 61 62 62 62 62 62 63 66 63 63 63 62 63 62 62 62 62 63 63 63 63 63 64 63 63 63 64 63 62 64 65 64 64 64 64 64 65 65 66 67 66 67 67 66 66 65 65 65
60 59 60 60 62 63 63 63 64 63 64 62 62 62 62 62 63 63 62 63 63 66 64 63 63 62 63 63 62 62 63 62 63 62 63 62 63 63 62 63 63 64 61 62 64 64 63 64 64 64 65 65 66 66 65 66 65 64 65 65 64 65
60 60 60 60 62 62 63 63 63 62 65 62 62 62 62 62 63 62 61 63 63 64 66 63 62 63 62 65 62 62 62 62 62 62 62 62 62 62 62 62 63 63 63 62 62 63 62 63 64 64 65 65 65 65 65 65 65 65 65 64 64 64
62 60 61 61 63 64 63 63 62 62 61 63 61 62 62 62 62 61 62 63 64 64 64 63 62 62 64 64 62 62 62 62 62 61 62 62 62 63 63 61 62 63 63 64 63 64 64 63 63 64 63 64 65 65 65 65 64 64 64 65 65 66
61 61 62 62 62 63 62 63 63 62 60 62 60 63 63 62 61 62 64 63 63 63 62 64 63 62 61 65 62 61 62 62 62 61 62 62 61 61 61 61 63 63 62 64 64 63 64 63 63 63 63 63 64 65 64 63 63 62 63 64 64 64
62 61 62 62 61 61 61 62 58 59 60 59 61 64 63 62 61 62 64 63 63 63 62 61 66 62 61 64 62 61 61 61 61 62 61 61 60 61 62 61 61 62 62 61 63 63 63 64 63 61 62 62 62 64 63 62 62 62 61 62 63 63
61 61 60 60 60 61 60 61 62 61 60 59 61 61 61 62 63 64 63 63 63 62 61 62 64 64 62 62 62 61 60 60 60 61 63 62 63 63 60 60 60 61 61 61 61 63 62 62 60 59 58 58 60 61 63 62 61 61 62 62 62 63
61 60 61 61 63 62 60 60 60 60 59 59 60 60 60 61 62 62 62 62 63 61 61 62 61 64 64 63 60 60 61 59 58 62 60 60 59 60 59 59 59 60 61 61 61 64 63 62 59 58 58 58 55 56 59 60 62 62 62 62 62 62
62 61 61 62 65 62 62 61 61 60 58 60 62 63 59 59 61 62 63 63 63 62 62 61 62 62 62 60 59 61 59 59 60 60 57 60 59 60 59 60 60 61 59 59 61 60 63 60 60 61 57 55 56 57 54 55 58 61 63 63 62 62
61 61 61 62 61 59 62 60 58 59 60 58 60 58 61 62 61 62 65 64 65 62 62 62 62 61 63 62 59 58 59 60 58 58 59 59 60 61 59 59 59 60 60 60 60 58 59 61 60 62 60 55 54 53 54 56 59 57 60 60 61 62
61 60 61 60 60 59 60 61 60 61 61 58 59 60 61 62 63 62 62 62 61 62 62 62 61 60 62 63 60 59 59 59 59 60 60 59 59 59 59 59 58 59 59 58 60 58 59 62 61 62 60 59 59 57 55 57 56 53 58 61 61 61
58 61 62 60 60 63 59 59 61 61 60 59 58 59 58 59 59 61 60 60 62 62 62 62 63 62 61 63 60 60 59 59 60 58 63 58 60 60 59 58 60 58 60 60 58 60 59 58 59 61 60 60 60 62 61 58 54 54 53 57 58 58
59 62 61 59 60 59 61 60 60 60 61 61 59 61 61 62 61 62 60 60 60 62 62 62 62 62 61 62 61 59 59 60 60 59 63 60 60 59 59 59 61 57 57 58 60 62 61 58 59 58 60 58 60 61 60 57 59 58 56 54 52 55
61 60 61 61 63 60 62 62 59 59 59 61 61 61 62 62 61 60 59 61 60 61 62 62 61 62 61 61 64 62 60 60 60 61 64 59 59 59 60 60 58 58 58 56 58 59 59 58 56 56 57 57 57 57 58 58 58 58 57 54 53 53
62 60 61 61 60 61 60 61 60 59 59 60 60 60 60 60 60 59 59 60 60 60 61 61 62 61 61 61 62 63 61 61 61 61 64 59 59 59 58 58 60 59 58 58 56 57 56 57 57 57 57 56 56 57 58 58 56 57 58 57 54 53
62 61 61 61 61 61 61 60 60 60 60 60 60 60 60 61 61 61 60 60 60 60 60 60 60 62 61 61 60 62 62 62 62 63 64 59 59 59 59 58 58 58 60 58 56 56 59 57 57 57 56 57 58 58 58 56 56 55 56 54 54 53
62 61 61 61 61 61 61 61 60 60 60 60 60 60 59 59 60 60 60 60 60 59 60 60 60 60 61 62 61 61 63 62 62 61 61 60 59 59 59 57 57 58 57 57 56 58 56 58 58 57 57 57 57 58 56 58 57 59 57 56 56 53
61 61 61 61 60 60 60 60 60 60 60 61 60 59 59 59 59 59 59 59 60 60 60 60 61 60 61 61 61 61 61 60 60 61 62 60 60 59 58 57 57 58 56 57 57 57 59 57 57 60 60 57 58 57 59 58 57 58 57 56 56 53
60 61 60 60 60 60 60 60 60 59 59 60 59 60 59 59 60 59 59 59 59 59 59 60 60 61 62 62 62 62 62 62 62 61 61 61 60 59 58 58 57 58 58 57 55 56 58 57 56 57 57 57 57 57 58 57 57 57 57 57 55 55
60 60 60 60 60 59 59 60 60 60 60 60 60 60 60 60 60 60 60 60 60 60 60 60 60 61 62 62 61 61 61 61 60 59 60 61 61 59 58 57 57 57 58 55 56 57 57 57 57 56 55 56 57 55 56 57 57 58 59 59 57 55
59 60 60 61 60 60 60 60 60 60 60 61 61 61 60 60 60 60 60 60 60 60 60 60 61 61 61 62 61 61 61 61 61 61 61 61 60 59 58 57 57 57 58 58 57 58 56 56 56 56 57 55 56 57 56 56 57 58 59 59 58 57
59 60 60 60 59 60 59 59 59 60 60 60 60 60 59 60 60 61 61 61 60 61 61 60 60 61 61 61 60 60 60 61 61 61 60 60 59 59 58 59 59 56 57 56 57 57 55 57 57 57 57 57 58 58 57 56 57 58 58 58 58 57
MSLP
1018.70 1018.66 1018.58 1018.42 1018.34 1018.26 1018.22 1018.14 1018.10 1017.94 1017.78 1017.58 1017.54 1017.62 1017.62 1017.54 1017.46 1017.50 1017.42 1017.38 1017.38 1017.30 1017.30 1017.34 1017.30 1017.18 1016.98 1016.94 1016.82 1016.82 1016.78 1016.78 1016.86 1016.90 1016.94 1016.94 1016.94 1016.90 1016.86 1016.86 1016.86 1016.86 1016.86 1016.86 1016.82 1016.78 1016.74 1016.70 1016.70 1016.70 1016.66 1016.58 1016.54 1016.66 1016.70 1016.74 1016.74 1016.70 1016.74 1016.82 1017.18 1017.34
1018.94 1018.86 1018.70 1018.62 1018.54 1018.42 1018.38 1018.22 1018.22 1018.10 1017.94 1017.82 1017.78 1017.78 1017.74 1017.66 1017.62 1017.62 1017.58 1017.54 1017.46 1017.42 1017.38 1017.34 1017.26 1017.14 1017.02 1016.90 1016.82 1016.74 1016.70 1016.70 1016.70 1016.78 1016.82 1016.86 1016.86 1016.86 1016.86 1016.82 1016.86 1016.86 1016.86 1016.86 1016.82 1016.86 1016.78 1016.70 1016.70 1016.70 1016.62 1016.62 1016.70 1016.78 1016.82 1016.86 1016.82 1016.78 1016.82 1016.94 1016.66 1016.42
1019.10 1018.94 1018.78 1018.70 1018.66 1018.54 1018.38 1018.26 1018.22 1018.18 1018.14 1017.98 1017.94 1017.90 1017.90 1017.82 1017.74 1017.74 1017.70 1017.66 1017.58 1017.58 1017.46 1017.38 1017.30 1017.10 1016.90 1016.82 1016.82 1016.74 1016.70 1016.66 1016.66 1016.66 1016.70 1016.74 1016.78 1016.82 1016.82 1016.78 1016.82 1016.82 1016.86 1016.86 1016.90 1016.90 1016.78 1016.74 1016.78 1016.70 1016.66 1016.74 1016.82 1016.86 1016.90 1016.90 1016.90 1016.94 1016.94 1016.66 1016.54 1016.46
1019.18 1019.06 1018.90 1018.78 1018.66 1018.54 1018.46 1018.38 1018.30 1018.26 1018.26 1018.18 1018.14 1018.10 1018.02 1017.94 1017.86 1017.82 1017.82 1017.74 1017.70 1017.62 1017.50 1017.46 1017.30 1017.14 1017.02 1016.94 1016.90 1016.82 1016.78 1016.78 1016.78 1016.74 1016.70 1016.74 1016.78 1016.78 1016.74 1016.74 1016.74 1016.74 1016.78 1016.86 1016.86 1016.82 1016.74 1016.70 1016.70 1016.70 1016.70 1016.82 1016.86 1016.86 1016.90 1016.90 1016.90 1016.90 1016.90 1016.62 1016.50 1016.42
1019.26 1019.18 1019.02 1018.90 1018.74 1018.66 1018.62 1018.50 1018.46 1018.42 1018.30 1018.30 1018.30 1018.22 1018.14 1018.10 1018.06 1017.98 1017.86 1017.78 1017.74 1017.62 1017.54 1017.46 1017.34 1017.22 1017.14 1016.98 1016.90 1016.90 1016.90 1016.90 1016.90 1016.94 1016.86 1016.94 1016.90 1016.90 1016.82 1016.82 1016.82 1016.78 1016.82 1016.82 1016.82 1016.74 1016.66 1016.62 1016.58 1016.58 1016.62 1016.74 1016.78 1016.82 1016.86 1016.78 1016.74 1016.70 1016.66 1016.54 1016.38 1016.22
1019.34 1019.18 1019.06 1018.94 1018.90 1018.82 1018.74 1018.78 1018.70 1018.54 1018.46 1018.42 1018.38 1018.38 1018.30 1018.26 1018.18 1018.06 1017.98 1017.86 1017.74 1017.66 1017.58 1017.50 1017.38 1017.26 1017.18 1017.06 1016.98 1016.98 1016.94 1016.98 1017.02 1017.06 1016.98 1017.06 1017.02 1016.98 1016.94 1016.90 1016.90 1016.90 1016.86 1016.82 1016.78 1016.70 1016.62 1016.54 1016.54 1016.54 1016.58 1016.66 1016.78 1016.86 1016.86 1016.78 1016.74 1016.66 1016.54 1016.42 1016.22 1016.06
1019.42 1019.26 1019.10 1019.02 1018.98 1018.98 1018.98 1018.90 1018.86 1018.70 1018.70 1018.62 1018.50 1018.58 1018.58 1018.46 1018.34 1018.26 1018.10 1017.98 1017.90 1017.82 1017.74 1017.66 1017.54 1017.46 1017.38 1017.30 1017.22 1017.14 1017.10 1017.06 1017.10 1017.10 1017.02 1017.06 1017.06 1017.02 1017.02 1016.98 1016.98 1016.94 1016.86 1016.82 1016.74 1016.66 1016.58 1016.50 1016.50 1016.58 1016.62 1016.70 1016.82 1016.86 1016.86 1016.78 1016.70 1016.62 1016.54 1016.38 1016.14 1015.98
1019.42 1019.30 1019.22 1019.14 1019.06 1019.02 1019.06 1019.06 1018.98 1018.82 1018.78 1018.66 1018.70 1018.74 1018.70 1018.62 1018.50 1018.38 1018.22 1018.10 1017.90 1017.94 1017.94 1017.86 1017.78 1017.66 1017.66 1017.50 1017.46 1017.38 1017.26 1017.22 1017.22 1017.18 1017.10 1017.06 1017.10 1017.10 1017.02 1016.98 1016.94 1016.94 1016.90 1016.78 1016.74 1016.62 1016.58 1016.46 1016.50 1016.58 1016.70 1016.74 1016.82 1016.90 1016.86 1016.78 1016.66 1016.54 1016.46 1016.42 1016.26 1016.10
1019.46 1019.42 1019.34 1019.18 1019.22 1019.22 1019.22 1019.22 1019.18 1019.06 1019.02 1018.86 1018.90 1018.90 1018.82 1018.74 1018.66 1018.54 1018.38 1018.26 1018.10 1018.10 1018.02 1018.02 1017.98 1017.94 1017.82 1017.74 1017.62 1017.54 1017.42 1017.38 1017.30 1017.26 1017.14 1017.10 1017.10 1017.06 1016.98 1016.90 1016.86 1016.82 1016.74 1016.70 1016.66 1016.62 1016.62 1016.58 1016.58 1016.62 1016.66 1016.74 1016.82 1016.86 1016.86 1016.78 1016.62 1016.50 1016.42 1016.42 1016.38 1016.26
1019.54 1019.50 1019.46 1019.42 1019.46 1019.38 1019.34 1019.34 1019.38 1019.34 1019.22 1019.10 1019.06 1018.98 1018.90 1018.86 1018.78 1018.70 1018.58 1018.38 1018.30 1018.22 1018.22 1018.22 1018.18 1018.06 1017.98 1017.94 1017.82 1017.70 1017.62 1017.58 1017.46 1017.30 1017.18 1017.14 1017.02 1016.98 1016.90 1016.82 1016.74 1016.66 1016.62 1016.58 1016.50 1016.46 1016.62 1016.58 1016.62 1016.62 1016.66 1016.74 1016.78 1016.82 1016.78 1016.74 1016.66 1016.54 1016.46 1016.50 1016.50 1016.46
1019.62 1019.50 1019.54 1019.54 1019.50 1019.54 1019.46 1019.50 1019.50 1019.46 1019.34 1019.22 1019.10 1018.98 1018.94 1018.90 1018.86 1018.78 1018.66 1018.50 1018.38 1018.30 1018.30 1018.26 1018.26 1018.26 1018.18 1018.14 1018.02 1017.90 1017.82 1017.70 1017.50 1017.42 1017.34 1017.26 1017.02 1016.94 1016.82 1016.78 1016.70 1016.62 1016.54 1016.50 1016.46 1016.50 1016.54 1016.58 1016.62 1016.66 1016.70 1016.78 1016.86 1016.86 1016.86 1016.78 1016.74 1016.58 1016.54 1016.58 1016.66 1016.62
1019.74 1019.66 1019.66 1019.66 1019.58 1019.50 1019.50 1019.46 1019.34 1019.26 1019.26 1019.18 1019.02 1018.98 1018.98 1018.94 1018.90 1018.82 1018.74 1018.62 1018.46 1018.38 1018.30 1018.30 1018.26 1018.26 1018.26 1018.18 1018.10 1018.02 1017.90 1017.74 1017.70 1017.54 1017.38 1017.30 1017.14 1016.98 1016.86 1016.74 1016.58 1016.54 1016.46 1016.46 1016.62 1016.50 1016.50 1016.66 1016.78 1016.78 1016.82 1016.90 1016.94 1016.98 1016.98 1016.86 1016.78 1016.70 1016.66 1016.74 1016.78 1016.74
1019.82 1019.74 1019.74 1019.74 1019.70 1019.62 1019.50 1019.42 1019.30 1019.30 1019.26 1019.14 1019.06 1019.02 1018.94 1018.94 1018.90 1018.82 1018.78 1018.70 1018.58 1018.46 1018.38 1018.38 1018.34 1018.30 1018.26 1018.18 1018.10 1017.98 1017.86 1017.78 1017.70 1017.58 1017.46 1017.34 1017.22 1017.02 1016.86 1016.70 1016.50 1016.54 1016.42 1016.54 1016.66 1016.70 1016.70 1016.78 1016.90 1016.94 1016.90 1017.02 1017.02 1017.02 1017.02 1016.94 1016.86 1016.78 1016.78 1016.82 1016.90 1016.86
1019.90 1019.90 1019.82 1019.78 1019.66 1019.58 1019.50 1019.38 1019.30 1019.22 1019.14 1019.06 1019.02 1018.94 1018.90 1018.86 1018.82 1018.78 1018.74 1018.70 1018.62 1018.54 1018.54 1018.50 1018.46 1018.38 1018.30 1018.22 1018.18 1018.06 1017.98 1017.82 1017.74 1017.62 1017.54 1017.34 1017.22 1017.18 1017.02 1016.86 1016.78 1016.66 1016.58 1016.78 1016.90 1016.94 1016.90 1017.02 1017.06 1017.06 1017.06 1017.02 1017.02 1017.10 1017.02 1017.06 1017.06 1017.02 1016.94 1016.90 1016.94 1016.98
1020.06 1019.98 1019.90 1019.82 1019.74 1019.66 1019.54 1019.50 1019.38 1019.22 1019.10 1019.06 1018.94 1018.94 1018.90 1018.86 1018.78 1018.78 1018.78 1018.74 1018.66 1018.58 1018.58 1018.58 1018.54 1018.54 1018.42 1018.38 1018.30 1018.22 1018.10 1018.02 1017.86 1017.70 1017.58 1017.46 1017.38 1017.26 1017.14 1017.06 1016.98 1016.78 1016.82 1016.98 1016.98 1017.02 1017.14 1017.18 1017.22 1017.22 1017.18 1017.10 1017.14 1017.10 1017.10 1017.18 1017.22 1017.22 1017.18 1017.10 1017.06 1017.22
1020.14 1020.06 1019.98 1019.94 1019.86 1019.82 1019.66 1019.58 1019.42 1019.18 1019.06 1019.02 1018.94 1018.90 1018.94 1018.90 1018.86 1018.86 1018.86 1018.82 1018.74 1018.62 1018.66 1018.66 1018.62 1018.62 1018.54 1018.46 1018.46 1018.42 1018.30 1018.18 1018.02 1017.82 1017.70 1017.58 1017.50 1017.42 1017.34 1017.22 1017.14 1017.06 1016.90 1017.14 1017.10 1017.30 1017.30 1017.38 1017.34 1017.38 1017.30 1017.22 1017.22 1017.22 1017.30 1017.30 1017.34 1017.42 1017.42 1017.38 1017.38 1017.42
1020.22 1020.22 1020.14 1019.98 1019.86 1019.70 1019.66 1019.58 1019.46 1019.30 1019.22 1019.14 1019.10 1019.02 1018.94 1018.94 1018.86 1018.94 1018.98 1018.94 1018.82 1018.70 1018.74 1018.70 1018.66 1018.62 1018.58 1018.54 1018.54 1018.46 1018.42 1018.34 1018.18 1018.02 1017.86 1017.74 1017.66 1017.58 1017.42 1017.34 1017.34 1017.22 1017.30 1017.30 1017.34 1017.54 1017.62 1017.58 1017.58 1017.58 1017.50 1017.50 1017.46 1017.46 1017.58 1017.58 1017.58 1017.58 1017.54 1017.58 1017.58 1017.58
1020.38 1020.30 1020.26 1020.14 1019.94 1019.82 1019.66 1019.54 1019.46 1019.38 1019.30 1019.26 1019.22 1019.18 1019.14 1019.06 1019.02 1019.06 1019.06 1018.98 1018.90 1018.82 1018.74 1018.74 1018.70 1018.66 1018.58 1018.54 1018.58 1018.54 1018.46 1018.42 1018.30 1018.18 1018.06 1017.98 1017.90 1017.82 1017.62 1017.54 1017.50 1017.42 1017.42 1017.46 1017.62 1017.74 1017.86 1017.86 1017.82 1017.78 1017.74 1017.74 1017.78 1017.74 1017.78 1017.78 1017.78 1017.70 1017.70 1017.78 1017.74 1017.74
1020.42 1020.34 1020.22 1020.14 1019.94 1019.74 1019.58 1019.50 1019.54 1019.46 1019.42 1019.34 1019.30 1019.26 1019.22 1019.18 1019.14 1019.10 1019.02 1018.98 1018.94 1018.86 1018.78 1018.74 1018.70 1018.70 1018.66 1018.62 1018.58 1018.62 1018.50 1018.50 1018.42 1018.30 1018.14 1018.06 1018.02 1017.90 1017.74 1017.66 1017.58 1017.58 1017.54 1017.62 1017.74 1017.78 1017.86 1017.94 1018.02 1018.06 1018.10 1018.10 1018.02 1018.06 1018.02 1018.02 1018.02 1017.98 1017.86 1017.86 1017.82 1017.90
1020.34 1020.26 1020.10 1019.98 1019.94 1019.86 1019.78 1019.82 1019.66 1019.58 1019.50 1019.38 1019.34 1019.26 1019.22 1019.22 1019.18 1019.06 1019.02 1018.98 1018.94 1018.86 1018.82 1018.70 1018.70 1018.70 1018.70 1018.66 1018.66 1018.70 1018.58 1018.54 1018.50 1018.42 1018.26 1018.26 1018.22 1018.14 1018.06 1017.86 1017.82 1017.74 1017.78 1017.82 1017.78 1017.82 1017.78 1017.82 1018.02 1018.10 1018.18 1018.18 1018.14 1018.18 1018.26 1018.30 1018.22 1018.18 1018.14 1018.02 1018.10 1018.10
1020.30 1020.26 1020.14 1020.14 1020.10 1020.10 1020.10 1019.94 1019.78 1019.74 1019.82 1019.62 1019.54 1019.38 1019.34 1019.22 1019.14 1019.06 1019.02 1019.02 1018.98 1018.90 1018.86 1018.78 1018.66 1018.70 1018.74 1018.66 1018.66 1018.70 1018.62 1018.54 1018.50 1018.46 1018.42 1018.46 1018.42 1018.26 1018.14 1018.02 1017.98 1017.90 1017.90 1017.98 1018.06 1017.98 1017.94 1017.78 1017.94 1018.38 1018.34 1018.42 1018.46 1018.38 1018.42 1018.46 1018.46 1018.42 1018.42 1018.30 1018.26 1018.34
1020.42 1020.30 1020.30 1020.30 1020.26 1020.18 1020.10 1020.06 1020.10 1019.86 1019.86 1019.70 1019.50 1019.50 1019.42 1019.26 1019.14 1019.02 1018.94 1018.94 1018.94 1018.90 1018.82 1018.78 1018.66 1018.70 1018.70 1018.66 1018.62 1018.62 1018.62 1018.58 1018.54 1018.50 1018.46 1018.46 1018.34 1018.18 1018.02 1017.98 1018.02 1017.98 1018.06 1018.10 1018.14 1018.02 1017.98 1018.02 1018.30 1018.62 1018.82 1019.02 1018.90 1018.70 1018.62 1018.66 1018.66 1018.66 1018.54 1018.42 1018.38 1018.42
1020.50 1020.42 1020.26 1020.26 1020.18 1020.14 1019.98 1019.94 1019.94 1019.74 1019.78 1019.58 1019.46 1019.42 1019.38 1019.22 1019.10 1018.98 1018.86 1018.82 1018.78 1018.74 1018.74 1018.62 1018.54 1018.50 1018.50 1018.46 1018.50 1018.50 1018.50 1018.54 1018.54 1018.50 1018.46 1018.38 1018.30 1018.22 1018.18 1018.10 1018.10 1018.22 1018.22 1018.14 1018.14 1017.94 1017.90 1017.98 1018.34 1018.62 1018.78 1019.02 1019.42 1019.38 1019.06 1018.94 1018.86 1018.78 1018.74 1018.62 1018.58 1018.58
1020.42 1020.30 1020.22 1020.06 1020.02 1019.90 1019.86 1019.78 1019.78 1019.74 1019.70 1019.66 1019.42 1019.38 1019.34 1019.10 1018.98 1018.90 1018.78 1018.62 1018.54 1018.50 1018.46 1018.42 1018.34 1018.30 1018.30 1018.30 1018.30 1018.22 1018.26 1018.30 1018.26 1018.34 1018.34 1018.26 1018.30 1018.26 1018.22 1018.06 1018.02 1018.14 1018.22 1018.34 1018.34 1018.14 1017.90 1018.02 1018.06 1018.42 1019.06 1019.22 1019.38 1019.42 1019.58 1019.46 1019.30 1019.02 1018.78 1018.78 1018.78 1018.74
1020.58 1020.42 1020.18 1020.14 1019.98 1019.98 1019.86 1019.74 1019.70 1019.66 1019.58 1019.58 1019.54 1019.46 1019.34 1019.14 1018.98 1018.90 1018.78 1018.58 1018.34 1018.30 1018.26 1018.26 1018.22 1018.14 1018.10 1018.10 1018.14 1018.10 1018.06 1018.06 1018.06 1018.10 1018.18 1018.18 1018.18 1018.18 1018.22 1018.18 1018.10 1018.02 1018.10 1018.34 1018.34 1018.34 1018.06 1017.98 1018.02 1018.02 1018.42 1019.22 1019.50 1019.62 1019.46 1019.30 1019.22 1019.38 1018.98 1019.02 1018.98 1018.94
1020.46 1020.34 1020.18 1020.10 1019.98 1019.94 1019.94 1020.02 1019.98 1020.06 1020.10 1020.10 1020.06 1019.78 1019.66 1019.50 1019.22 1019.02 1018.86 1018.58 1018.38 1018.26 1018.22 1018.22 1018.18 1018.10 1017.98 1017.98 1017.98 1017.94 1017.94 1017.94 1017.90 1017.90 1017.94 1017.98 1018.02 1018.06 1018.10 1018.18 1018.18 1017.86 1018.02 1018.10 1018.14 1018.22 1018.22 1018.02 1018.10 1018.10 1018.18 1018.18 1018.34 1018.66 1019.18 1019.14 1019.18 1019.70 1019.26 1019.02 1019.18 1019.38
1020.62 1020.38 1020.18 1020.10 1020.10 1019.98 1020.02 1020.10 1020.10 1020.10 1020.14 1020.18 1020.18 1019.82 1019.50 1019.34 1019.30 1019.02 1018.90 1018.66 1018.34 1018.18 1018.10 1018.14 1018.06 1018.02 1017.90 1017.86 1017.86 1017.82 1017.78 1017.78 1017.78 1017.78 1017.74 1017.86 1017.90 1017.86 1017.90 1018.02 1018.18 1018.02 1017.90 1017.94 1018.02 1018.14 1018.14 1018.26 1018.02 1018.14 1018.22 1018.18 1018.14 1018.14 1018.38 1018.74 1019.38 1019.50 1019.62 1019.54 1019.46 1019.58
1020.58 1020.38 1020.22 1020.26 1020.30 1020.42 1020.38 1020.30 1020.18 1020.10 1020.02 1019.90 1019.82 1019.66 1019.34 1019.14 1019.02 1018.90 1018.82 1018.50 1018.30 1018.06 1017.94 1017.94 1017.94 1017.86 1017.78 1017.74 1017.74 1017.70 1017.70 1017.66 1017.66 1017.62 1017.62 1017.62 1017.62 1017.66 1017.70 1017.82 1017.86 1018.02 1018.06 1017.94 1017.82 1017.90 1017.94 1018.06 1018.26 1018.06 1018.10 1018.10 1018.06 1018.10 1018.30 1018.30 1018.26 1018.54 1018.98 1019.58 1020.14 1020.34
1020.38 1020.26 1020.34 1020.58 1020.46 1020.30 1020.18 1020.10 1020.10 1020.06 1019.94 1019.78 1019.78 1019.62 1019.46 1019.34 1019.22 1019.06 1018.86 1018.46 1018.34 1018.06 1017.90 1017.74 1017.78 1017.74 1017.66 1017.62 1017.58 1017.54 1017.58 1017.58 1017.54 1017.54 1017.46 1017.50 1017.50 1017.54 1017.54 1017.54 1017.66 1017.70 1017.82 1017.90 1017.82 1017.74 1017.82 1017.90 1018.10 1018.14 1018.06 1018.02 1018.14 1018.26 1018.26 1018.30 1018.34 1018.30 1018.86 1019.42 1019.78 1020.18
1020.34 1020.54 1020.78 1020.70 1020.42 1020.18 1020.22 1020.22 1020.14 1020.10 1020.06 1019.90 1019.78 1019.62 1019.54 1019.34 1019.14 1019.02 1018.86 1018.58 1018.42 1018.30 1018.18 1018.02 1017.70 1017.62 1017.58 1017.50 1017.46 1017.42 1017.42 1017.42 1017.42 1017.42 1017.38 1017.34 1017.38 1017.46 1017.50 1017.50 1017.50 1017.46 1017.54 1017.66 1017.86 1017.74 1017.62 1017.70 1017.86 1017.94 1018.06 1018.02 1018.02 1018.18 1018.14 1018.26 1018.30 1018.42 1018.66 1018.82 1019.22 1019.94
1020.54 1020.58 1020.78 1020.66 1020.46 1020.38 1020.42 1020.38 1020.30 1020.22 1020.18 1020.10 1019.90 1019.82 1019.62 1019.38 1019.18 1018.98 1018.90 1018.66 1018.50 1018.30 1018.18 1017.98 1017.82 1017.62 1017.54 1017.50 1017.46 1017.38 1017.34 1017.26 1017.26 1017.26 1017.26 1017.34 1017.30 1017.26 1017.26 1017.30 1017.42 1017.42 1017.38 1017.34 1017.58 1017.66 1017.58 1017.58 1017.62 1017.70 1017.74 1017.86 1017.82 1017.98 1017.98 1018.14 1018.34 1018.46 1018.54 1018.82 1019.30 1019.78
1020.70 1020.70 1020.74 1020.70 1020.58 1020.54 1020.50 1020.42 1020.38 1020.34 1020.30 1020.18 1020.10 1020.02 1019.90 1019.74 1019.50 1019.34 1019.10 1018.90 1018.62 1018.46 1018.18 1018.02 1017.86 1017.70 1017.42 1017.26 1017.34 1017.26 1017.26 1017.26 1017.22 1017.22 1017.18 1017.14 1017.18 1017.18 1017.10 1017.18 1017.26 1017.26 1017.26 1017.26 1017.38 1017.38 1017.42 1017.34 1017.30 1017.42 1017.50 1017.62 1017.74 1017.82 1018.02 1017.86 1018.02 1018.02 1018.30 1018.46 1018.74 1019.46
1021.22 1021.10 1021.02 1020.86 1020.90 1020.86 1020.70 1020.58 1020.54 1020.46 1020.38 1020.22 1020.14 1020.06 1019.94 1019.82 1019.62 1019.46 1019.26 1019.02 1018.82 1018.62 1018.34 1018.18 1017.86 1017.74 1017.42 1017.22 1017.18 1017.14 1017.06 1017.14 1017.10 1017.06 1017.02 1016.98 1016.94 1017.06 1017.10 1017.10 1017.10 1017.10 1017.18 1017.14 1017.18 1017.10 1017.10 1017.22 1017.22 1017.10 1017.14 1017.46 1017.46 1017.54 1017.54 1017.70 1017.94 1018.06 1018.18 1018.34 1018.70 1019.74
1021.62 1021.46 1021.38 1021.18 1021.06 1021.02 1020.90 1020.74 1020.58 1020.50 1020.38 1020.26 1020.18 1020.06 1019.94 1019.86 1019.58 1019.42 1019.22 1019.06 1018.86 1018.66 1018.50 1018.30 1017.98 1017.70 1017.34 1017.14 1017.10 1016.90 1016.74 1016.70 1017.02 1017.30 1017.18 1016.90 1016.82 1016.90 1017.02 1017.02 1017.02 1016.98 1016.94 1016.98 1017.10 1017.06 1017.02 1017.10 1017.22 1017.14 1017.18 1017.18 1017.30 1017.42 1017.58 1017.86 1017.94 1017.86 1017.98 1018.30 1018.78 1019.02
1021.86 1021.62 1021.50 1021.42 1021.26 1021.18 1021.06 1020.90 1020.70 1020.58 1020.46 1020.34 1020.22 1020.06 1019.94 1019.78 1019.58 1019.38 1019.14 1018.98 1018.74 1018.54 1018.42 1018.14 1017.90 1017.54 1017.22 1017.10 1016.90 1016.82 1016.78 1016.86 1016.82 1016.90 1017.06 1016.86 1016.70 1016.70 1016.86 1016.94 1016.90 1016.78 1016.82 1016.90 1016.90 1016.98 1016.98 1016.98 1017.06 1017.06 1017.06 1017.06 1017.02 1017.30 1017.50 1017.78 1017.94 1017.66 1017.74 1017.78 1018.10 1018.74
1022.14 1021.94 1021.74 1021.58 1021.46 1021.34 1021.18 1020.98 1020.78 1020.66 1020.54 1020.42 1020.22 1020.10 1019.90 1019.70 1019.54 1019.38 1019.14 1018.98 1018.74 1018.54 1018.34 1018.14 1017.78 1017.50 1017.14 1016.98 1016.78 1016.66 1016.62 1016.38 1016.22 1016.38 1016.54 1016.54 1016.46 1016.50 1016.66 1016.78 1016.78 1016.74 1016.66 1016.82 1016.74 1016.82 1016.90 1016.94 1016.94 1016.98 1016.90 1017.02 1017.06 1016.98 1017.30 1017.54 1017.70 1017.58 1017.66 1017.70 1017.98 1018.34
1022.22 1022.06 1021.94 1021.86 1021.70 1021.58 1021.42 1021.22 1021.06 1020.90 1020.74 1020.54 1020.38 1020.26 1020.14 1019.86 1019.62 1019.38 1019.22 1018.98 1018.78 1018.54 1018.34 1018.14 1017.82 1017.46 1017.18 1016.78 1016.62 1016.50 1016.42 1016.18 1015.98 1016.10 1016.14 1016.14 1016.30 1016.34 1016.38 1016.50 1016.54 1016.58 1016.58 1016.66 1016.66 1016.62 1016.78 1016.82 1016.82 1016.78 1016.78 1016.82 1016.78 1016.78 1016.98 1017.34 1017.50 1017.50 1017.54 1017.74 1017.94 1018.06
Wind_Speed
6 7 6 5 5 5 6 9 7 10 12 12 11 10 10 9 8 8 8 8 8 5 4 4 4 4 6 4 6 6 6 5 5 4 5 6 6 6 6 7 7 8 8 9 8 9 9 8 8 8 7 5 5 4 3 3 3 2 3 3 6 2
5 7 6 5 4 3 3 5 5 5 5 6 6 7 5 5 6 5 7 5 4 4 4 4 4 5 3 3 3 5 4 6 5 3 4 5 5 5 5 6 7 8 8 8 8 4 4 5 6 5 5 5 3 3 3 3 3 2 4 4 4 7
6 4 4 5 4 3 3 4 5 5 4 6 6 5 4 5 5 5 5 5 4 4 4 4 4 5 4 5 4 6 6 5 4 4 4 4 5 6 6 7 7 7 7 7 4 3 3 3 3 4 3 3 2 2 2 2 3 2 2 4 5 8
4 4 4 3 4 3 4 4 5 4 4 4 5 5 5 5 5 4 5 4 4 4 4 4 5 7 6 4 3 4 5 6 5 5 5 3 4 4 6 6 6 6 4 2 3 3 3 2 2 1 2 1 1 2 3 2 1 2 2 2 3 9
4 3 4 3 4 4 4 4 5 5 4 4 4 4 4 4 4 5 5 4 4 3 4 4 4 4 4 4 4 3 3 3 3 3 4 3 3 4 4 3 3 3 3 3 4 4 3 3 2 2 1 2 2 3 3 2 1 1 1 2 3 8
3 3 3 3 4 4 5 5 5 4 4 4 5 5 4 5 5 5 5 5 4 4 5 5 5 5 6 6 6 5 4 3 3 2 2 3 3 3 3 4 4 3 3 3 4 4 4 4 3 2 2 3 3 4 3 3 3 2 1 1 2 5
3 3 3 3 3 4 4 3 3 4 5 5 5 5 5 5 5 5 5 4 5 5 5 5 6 6 6 6 6 6 5 3 3 3 3 3 3 3 3 3 3 3 3 4 4 4 4 3 2 1 2 3 4 4 4 3 3 3 2 1 2 3
2 2 3 3 3 4 4 4 4 4 5 5 5 5 5 5 5 6 5 5 4 4 5 5 5 6 5 5 5 5 5 5 4 3 3 2 3 3 3 3 3 3 3 3 4 3 3 2 2 2 3 3 4 4 3 2 2 2 2 2 2 3
2 2 2 1 4 4 3 3 4 5 5 4 4 4 4 4 5 5 5 5 5 6 5 5 5 5 4 5 5 5 5 5 5 4 3 3 2 4 3 3 3 3 3 3 3 3 1 1 3 4 3 4 4 4 3 3 2 2 2 2 2 2
2 2 2 4 3 4 4 4 4 4 4 3 4 2 2 4 4 5 5 5 5 4 5 5 5 5 5 5 5 5 5 5 5 5 5 5 4 3 3 3 3 3 3 3 3 2 3 3 4 5 4 4 4 3 3 2 2 1 1 1 1 3
4 4 3 4 3 4 3 3 3 1 1 2 2 1 2 2 3 4 4 4 4 3 3 4 4 4 4 4 5 5 5 4 5 6 5 5 5 4 3 3 4 4 4 3 3 2 2 3 4 5 5 5 4 4 3 3 2 2 2 1 3 3
3 3 3 3 3 4 4 4 3 4 4 4 3 4 3 3 3 3 3 3 3 4 3 4 4 3 4 4 4 4 4 5 5 5 5 5 5 5 4 4 4 3 3 3 3 3 3 5 6 4 4 5 4 4 4 4 3 2 2 3 4 4
4 4 5 5 5 3 3 3 4 4 3 3 2 2 3 3 2 2 2 2 3 3 3 4 3 3 2 3 3 4 5 4 4 5 5 5 4 5 5 5 5 4 3 4 5 5 4 6 6 5 5 5 6 6 5 4 3 3 3 4 4 5
4 5 4 4 4 4 4 4 3 4 2 3 2 2 1 1 1 2 2 2 3 3 3 3 3 3 2 3 3 4 4 4 4 4 4 4 5 5 5 5 5 4 5 6 5 4 4 6 5 5 5 5 5 5 4 5 4 4 4 4 5 6
3 4 4 5 4 4 3 4 4 4 4 3 2 1 2 1 3 2 2 3 3 2 3 3 3 2 3 3 4 4 4 4 4 4 4 5 5 4 5 5 5 5 4 6 5 5 5 6 6 6 5 5 5 5 5 5 4 4 4 4 5 6
2 4 3 3 3 3 3 3 4 4 4 3 3 3 3 3 2 3 4 4 3 2 3 3 3 2 3 4 4 4 4 5 5 3 4 4 4 5 5 4 5 4 4 5 6 6 6 7 6 6 5 5 5 5 4 5 5 4 4 5 6 5
5 5 5 5 5 4 4 4 4 4 3 3 4 4 3 3 4 4 4 4 4 4 3 3 3 3 3 3 4 4 4 5 4 4 4 5 5 4 4 4 5 5 4 4 5 7 6 6 6 6 6 6 5 6 5 5 5 4 5 6 6 5
2 2 2 3 3 4 4 3 4 4 2 2 2 3 3 3 3 4 3 4 4 5 4 4 3 3 4 3 3 4 4 5 4 4 4 5 5 4 4 4 5 5 4 4 4 6 6 6 6 7 7 7 6 5 5 5 5 4 4 5 7 7
2 3 3 2 3 3 4 4 1 3 2 2 2 1 2 2 2 3 3 2 3 4 4 3 3 4 4 4 5 5 4 5 4 4 4 5 5 5 5 5 5 4 5 6 5 6 6 7 7 7 7 8 7 6 4 5 5 5 4 4 6 6
1 3 2 3 4 4 4 4 6 5 3 2 3 2 3 3 4 3 3 3 3 3 3 2 2 2 3 3 4 4 3 3 3 3 4 5 5 5 5 6 6 4 5 5 4 5 5 7 7 6 7 6 7 6 6 4 4 4 4 6 5 5
4 3 4 5 4 3 3 6 2 3 2 3 3 2 3 4 4 3 3 2 2 3 3 3 1 2 3 3 3 3 3 3 3 3 3 3 3 4 4 4 4 3 4 4 4 2 1 2 5 5 5 6 6 6 6 6 6 5 4 4 6 6
4 4 3 2 2 3 2 2 2 5 3 4 2 2 3 4 3 4 4 2 1 3 3 3 1 0 1 1 2 3 3 3 3 2 1 2 1 3 5 5 4 4 3 3 2 2 2 1 2 3 4 4 5 4 6 6 6 5 5 5 7 8
4 4 3 2 1 3 2 2 2 3 2 3 2 3 3 5 3 4 4 3 1 1 2 3 2 0 0 0 0 1 2 2 1 1 1 2 3 4 3 4 5 3 3 3 2 2 3 1 1 2 3 4 1 2 2 4 4 5 5 6 6 8
6 4 4 3 2 3 3 2 2 2 2 3 2 1 3 4 3 3 5 3 3 2 2 3 2 1 1 1 1 0 1 1 1 2 2 2 3 2 2 3 4 4 2 2 3 2 2 1 2 5 1 1 2 2 3 3 3 2 4 5 6 7
5 5 5 4 4 4 3 3 4 3 3 3 2 4 4 5 4 3 4 4 6 3 3 4 3 3 3 2 2 3 3 2 2 3 3 3 2 1 2 1 1 4 4 2 4 2 2 1 1 0 3 3 2 0 2 4 4 1 2 4 4 5
4 4 5 3 1 2 2 1 3 5 6 5 6 6 6 5 7 7 6 5 6 5 4 3 4 4 3 3 3 3 3 4 3 4 4 4 3 2 2 2 3 3 2 2 1 2 3 2 2 0 2 2 4 2 4 4 2 2 3 3 5 6
4 4 4 3 2 0 1 1 1 1 2 3 4 5 4 4 5 6 5 7 6 5 4 4 4 4 3 3 3 3 3 3 3 4 3 4 4 4 3 2 1 1 2 3 2 3 4 3 3 1 0 2 3 3 6 6 3 2 2 2 3 7
3 3 3 3 3 4 4 3 4 3 2 3 3 6 6 6 5 4 5 6 5 6 5 4 5 5 4 4 4 4 3 3 3 4 3 5 5 4 3 2 2 1 1 2 2 0 3 0 1 3 1 2 1 3 4 2 5 4 4 5 4 7
5 4 6 7 6 5 3 2 2 2 5 4 3 5 5 5 5 5 6 6 5 6 5 5 4 5 5 5 4 4 4 4 4 4 3 4 4 3 4 4 3 2 1 1 1 2 1 2 1 2 3 1 3 3 2 2 3 2 3 5 4 5
6 5 5 5 4 4 4 4 5 4 4 6 5 5 4 6 6 5 6 6 6 6 6 6 5 4 5 6 5 4 5 5 5 5 3 4 4 4 4 3 3 4 3 2 2 3 3 2 2 2 2 2 2 2 3 2 2 4 3 1 5 6
6 5 6 6 6 7 5 4 5 5 5 7 7 6 7 7 7 7 7 7 6 6 5 6 5 5 5 5 5 5 5 6 5 5 4 4 5 5 5 4 4 4 3 2 3 3 3 2 2 2 1 2 2 2 2 3 2 1 2 4 5 6
8 8 7 5 6 7 6 6 5 5 7 7 7 6 7 8 7 8 7 7 7 7 6 6 5 6 6 6 5 6 5 5 5 5 6 6 5 5 5 4 4 4 3 3 3 3 3 3 2 1 2 2 3 5 4 3 4 6 6 4 7 7
8 7 7 7 7 7 7 7 6 6 6 6 6 6 6 7 7 7 7 8 8 7 7 7 7 6 7 7 6 6 7 6 6 6 6 6 5 5 5 5 5 5 4 3 3 3 1 1 3 3 3 3 2 2 3 2 2 4 1 5 7 7
7 7 6 6 7 7 8 8 7 7 7 6 7 6 6 6 7 6 6 6 6 6 7 7 8 8 8 7 6 7 7 7 4 6 7 7 6 6 5 6 5 5 5 3 3 3 3 2 2 4 2 3 3 3 2 2 3 4 5 6 6 9
8 8 7 6 6 7 7 7 7 7 6 6 6 7 6 6 6 7 7 7 7 6 6 7 7 8 9 8 8 7 6 4 7 7 7 7 6 5 6 5 5 5 4 3 4 4 3 2 2 4 4 4 3 3 3 3 4 4 5 7 8 9
6 7 8 8 8 9 9 8 9 10 9 8 7 7 7 7 7 7 8 8 8 7 7 7 8 8 9 7 8 7 6 8 8 8 8 8 7 6 6 6 5 4 5 3 4 4 3 4 3 3 4 3 3 4 4 4 4 4 5 5 6 7
7 7 8 8 7 7 7 8 9 8 9 10 10 10 9 10 10 8 7 7 8 8 8 7 8 8 9 9 7 7 7 8 8 7 7 6 5 6 6 6 6 5 5 5 4 5 4 4 4 3 3 5 5 4 4 4 3 3 4 4 5 6
Wind_Direction
32 31 29 27 20 21 11 28 25 26 31 29 33 27 25 23 21 13 19 16 21 20 16 352 334 315 320 322 321 331 348 348 356 356 354 356 353 352 348 342 335 330 327 331 333 337 336 337 345 1 11 1 15 36 21 16 25 55 67 89 84 12
31 32 37 34 21 8 8 16 26 22 20 29 18 25 10 19 16 6 7 10 13 0 346 324 317 307 295 282 292 310 328 347 354 356 346 345 342 334 335 330 327 327 330 335 338 346 324 329 342 356 355 346 22 17 28 31 33 36 57 82 146 209
34 22 29 33 26 8 7 15 30 24 14 23 16 18 10 12 8 359 359 3 354 334 329 329 310 309 321 330 333 319 324 327 350 2 352 351 342 332 324 319 318 325 335 343 347 316 310 311 324 338 337 353 27 22 39 38 28 36 46 146 179 208
36 38 34 13 23 19 16 17 20 13 13 17 12 7 9 7 358 352 354 350 345 331 337 323 322 335 344 337 316 335 347 0 358 354 339 5 335 327 321 313 312 315 337 335 311 298 281 272 277 242 281 37 75 50 59 46 37 48 86 210 193 199
32 33 49 27 37 20 20 21 9 5 6 10 7 10 9 359 346 338 342 342 334 333 334 330 333 343 353 345 353 355 357 9 2 338 342 328 320 317 323 312 314 322 318 314 308 292 284 281 272 267 332 69 57 48 51 42 18 5 101 234 238 217
22 14 29 37 29 28 33 21 6 348 3 1 14 10 359 351 343 346 343 339 345 353 351 357 4 9 15 12 17 13 8 358 3 343 318 299 297 307 307 305 302 303 298 287 284 286 283 282 290 320 44 61 57 53 49 31 19 28 66 220 285 205
20 359 23 29 43 40 25 11 328 347 21 0 21 9 352 345 342 343 347 347 360 358 2 9 9 14 19 10 24 14 11 5 349 337 322 306 295 290 281 293 291 284 284 276 272 272 275 276 263 38 54 56 56 56 49 33 24 21 347 324 297 213
14 34 6 6 48 37 9 13 354 15 20 19 29 8 351 352 352 357 355 350 353 15 20 19 18 20 9 14 21 7 10 20 4 341 332 320 309 301 278 268 277 273 271 263 271 277 281 295 359 90 79 58 65 69 64 53 51 39 4 329 313 293
16 35 349 1 50 22 28 26 8 12 14 26 23 4 350 356 11 354 356 355 355 15 21 25 28 15 4 26 10 13 14 11 5 2 338 320 287 305 308 295 284 280 267 274 264 268 240 17 66 84 94 75 73 71 71 57 53 34 14 32 350 330
350 34 29 36 34 37 20 32 13 10 348 21 359 339 25 25 1 13 1 357 359 25 31 28 26 16 28 18 12 10 16 4 1 354 1 358 337 306 309 315 312 295 295 288 279 289 61 105 91 89 81 77 71 75 73 78 56 4 10 12 2 2
9 31 28 40 29 42 35 31 4 313 337 16 334 2 29 51 27 21 356 347 9 24 52 42 42 30 30 25 18 16 12 353 11 358 350 347 338 347 325 313 316 315 314 305 318 3 70 102 87 80 82 76 70 76 74 71 65 44 62 77 54 25
13 18 34 23 21 27 27 7 7 12 10 356 354 13 12 25 29 10 360 360 5 28 44 53 55 44 53 39 32 21 8 14 355 346 350 340 343 344 340 332 324 320 300 305 17 21 71 96 86 89 85 76 77 84 90 97 105 109 66 61 59 36
1 19 32 18 14 8 5 5 4 3 347 349 355 2 21 23 7 32 18 358 5 24 35 47 45 50 48 50 39 33 16 9 351 345 342 337 332 350 1 357 353 359 344 41 50 53 72 81 82 76 77 80 82 79 78 74 74 68 55 49 62 59
15 15 16 17 15 3 356 347 358 344 339 340 357 9 14 16 51 43 17 10 15 32 37 19 35 41 51 61 44 36 12 359 348 340 337 352 8 357 355 1 349 0 10 38 61 71 74 80 78 78 76 83 80 79 79 76 65 62 54 56 62 64
360 8 13 2 4 348 348 346 344 332 332 326 351 30 342 358 41 8 24 19 23 28 36 20 5 17 33 37 40 18 2 336 327 343 9 359 5 5 358 357 351 2 4 59 73 72 81 87 90 82 83 90 90 77 63 75 93 98 85 62 59 54
3 13 357 348 337 328 327 330 328 335 346 4 360 17 1 360 8 8 16 358 6 3 56 22 18 8 37 36 30 11 343 337 347 358 18 9 20 17 346 359 1 3 41 59 89 89 88 87 81 77 70 72 73 69 62 73 74 65 54 58 74 77
9 352 347 342 344 346 349 355 354 347 1 357 8 354 350 345 17 15 2 357 354 353 29 10 8 16 36 32 22 12 350 354 350 2 20 9 23 359 8 9 9 12 36 79 77 96 89 87 80 75 70 67 57 62 60 64 68 64 74 77 82 75
17 343 318 312 320 324 330 350 2 350 0 8 352 332 332 359 15 353 352 359 349 354 2 358 1 2 17 13 34 14 1 6 3 4 24 19 4 349 355 35 40 14 30 61 66 95 96 85 78 72 66 62 59 57 56 60 65 68 85 90 89 88
11 341 323 309 323 344 345 344 25 352 355 349 354 324 16 341 340 343 339 355 350 2 352 353 359 11 13 1 1 10 14 360 5 9 23 21 7 360 5 13 54 40 41 66 83 95 105 101 87 78 71 69 71 66 56 52 54 62 94 121 112 105
341 329 322 358 359 351 348 359 331 348 357 339 340 340 349 313 310 327 325 17 358 355 350 341 11 30 37 5 3 10 343 9 12 16 35 27 2 4 0 3 22 46 55 61 70 102 115 104 90 84 80 69 61 63 65 59 56 37 60 101 78 68
324 339 14 359 352 1 344 334 349 10 307 280 286 325 320 310 310 303 320 23 19 339 334 329 356 55 54 2 353 2 354 354 3 27 52 30 320 339 3 357 358 12 42 56 52 44 68 84 101 69 55 66 61 54 62 64 69 67 36 72 86 87
332 335 6 341 291 307 254 241 256 276 271 276 292 286 305 326 320 317 317 338 26 324 321 310 315 116 114 60 350 1 2 329 338 355 18 337 348 14 17 28 14 12 25 61 9 314 303 19 35 128 123 83 65 49 62 70 70 63 72 75 98 105
325 337 332 307 277 290 266 254 199 257 212 284 250 222 223 249 273 287 290 286 245 296 294 298 305 273 116 26 123 348 358 298 321 309 106 29 20 30 12 32 44 74 334 11 337 294 337 353 129 114 73 104 125 91 72 68 62 76 99 104 110 111
332 333 317 306 291 275 245 237 238 245 259 213 260 285 268 267 289 313 292 281 271 210 227 252 263 206 185 186 199 175 195 126 191 162 164 118 62 25 9 28 49 52 115 8 354 306 348 16 146 140 159 7 133 144 135 113 110 59 109 113 120 114
319 316 310 318 321 309 333 2 350 343 357 348 344 355 351 320 303 279 279 275 262 229 222 238 245 223 193 212 202 183 162 172 173 161 148 137 143 213 269 240 161 75 67 108 344 311 314 45 147 124 134 118 64 107 233 136 140 38 104 117 117 106
333 331 326 323 309 51 41 12 2 6 348 350 331 333 328 312 318 316 295 295 298 267 255 251 249 229 207 201 210 183 177 158 152 170 176 180 182 175 268 287 249 141 141 179 185 20 328 319 33 334 201 182 167 202 166 153 116 176 338 48 106 75
313 314 317 318 298 224 1 23 2 308 265 273 288 274 251 272 274 285 296 293 284 297 275 262 266 245 230 229 221 192 181 179 170 185 179 160 182 197 207 185 295 156 186 143 126 5 323 287 332 135 335 270 220 179 171 153 201 128 131 51 63 88
315 313 315 328 350 352 335 329 349 347 301 281 254 268 282 284 273 269 287 282 291 284 284 255 257 263 240 238 222 216 195 173 177 190 181 187 193 203 200 184 154 172 244 169 171 57 286 76 65 281 350 37 90 139 160 16 155 161 145 140 85 64
343 337 354 11 9 4 3 341 320 316 317 297 280 287 301 305 307 313 300 293 287 282 282 272 245 252 253 238 231 210 202 203 202 217 194 188 197 180 197 187 165 156 150 255 192 150 134 247 139 230 318 30 66 80 71 59 87 94 139 147 136 118
330 355 10 7 352 336 1 357 356 335 325 313 322 316 325 319 322 319 315 311 311 308 303 301 284 259 260 246 244 222 200 204 209 212 208 197 182 190 191 190 195 184 168 178 267 180 183 197 183 210 222 225 114 93 84 66 68 105 72 57 156 159
334 347 7 343 337 336 343 353 341 337 328 324 324 325 329 326 325 327 325 319 317 311 305 288 289 279 260 266 257 237 217 216 214 210 205 196 207 206 209 193 194 189 180 172 173 184 185 202 159 155 169 172 180 183 180 164 191 347 137 137 127 144
342 346 341 338 339 343 342 337 340 333 328 325 324 323 321 316 316 314 315 314 315 317 312 308 295 286 273 248 237 241 232 233 226 222 216 206 205 207 206 178 174 202 201 188 185 164 161 202 190 138 167 168 193 195 199 184 193 173 183 170 151 149
347 348 334 333 349 341 345 343 342 333 325 324 324 320 314 311 308 308 309 312 315 313 313 316 309 298 279 261 242 232 224 219 226 223 226 211 212 205 197 186 190 195 175 193 201 165 152 202 206 206 201 176 191 163 209 211 180 181 130 116 130 122
355 358 354 340 341 347 343 337 334 332 330 332 327 326 318 312 309 302 299 296 297 297 300 294 295 289 280 279 256 241 225 218 224 246 237 220 211 204 193 193 195 194 195 192 155 180 181 177 206 225 197 182 182 170 201 217 200 152 150 134 146 150
13 3 8 1 350 350 343 341 340 337 336 339 332 330 325 315 310 313 310 304 297 294 290 291 288 286 288 279 268 252 238 191 225 223 235 227 213 196 197 199 195 202 188 187 169 167 182 146 195 205 194 205 167 160 164 191 181 191 177 173 152 155
22 8 8 9 8 3 358 355 359 357 352 349 344 337 333 333 326 320 314 310 307 303 298 295 293 291 285 280 275 265 230 219 218 217 219 214 206 196 194 195 204 180 187 185 172 180 187 172 206 207 196 172 171 171 157 170 191 188 194 175 152 157
19 19 15 9 8 5 1 6 3 1 360 358 356 354 345 338 334 328 321 316 310 307 301 299 298 297 295 292 283 270 247 240 230 222 219 214 207 208 192 198 196 186 188 196 184 201 162 189 226 203 166 181 197 172 161 163 174 188 186 166 166 167